Showing default

MESON-1, 59131

Orbit data source: Space-Track

MESON-1, 59131 is a payload satellite owned by Atomos (US) in SSO that was launched on Mon, 04 Mar 2024 UTC via an FALCON 9 launch vehicle from the Air Force Western Test Range (AFWTR). Payload-class satellites include a variety of spacecraft equipped with specific instruments for various scientific and technological missions. These include communications satellites like Starlink; space stations such as the ISS; scientific satellites like the Hubble; Earth observation satellites from companies like Planet Labs, Umbra, and HawkEye 360; GPS; miniature CubeSats for education and research; and military/defense satellites.

Loading next visibility...
Identifier
59131, 2024-043AK
Orbit
SSO
Country
Flag of USUS
Related business
Manufacturer
Atomos
Mission
Operational Commercial Technology
Bus & Motor
ATOMOS, Unknown motor
Mass
~100 kg wet, ~100 kg dry
Launch date (UTC)
2024-03-04 (2 years ago)
Launch vehicle
FALCON 9
Launch site
Air Force Western Test Range (AFWTR)
Object type
Payload
Rocket body
Debris
Shape & HBR
Box + 2 Pan, 0.5 m
Radar Cross Section
1.000 m², Medium (>0.1 m² and < 1m²)

Expand to show TLE details & history
Last TLE update: 16 hours ago

TLE from 16 hours ago
0 MESON-1
1 59131U 24043AK  26175.13574011  .00005122  00000-0  17250-3 0  9993
2 59131  97.5648 313.4259 0009461 208.8318 151.2401 15.31193215128148
Epoch: 2026-06-24T03:15Z
TLE epoch observation values (Epoch: 2026-06-24T03:15:27.945Z)
Latitude
-0.00003°
Longitude
-7.73783°
Altitude
481.036 km
Speed
7.622 km/s
True Right ascension
20h 53m 42s
True Declination
0° 00' 00"
Sunlit
Object was in full shadow at epoch
Visualization orbit readout
Latitude
Unknown
Longitude
Unknown
Altitude
Unknown
Speed
Unknown
Apparent Right ascension
Unknown
Apparent Declination
Unknown
Sunlit
N/A
Visualization observer readout
Local Sidereal Time
06:18:29
Azimuth
Unknown
Elevation
Unknown
Doppler factor
Unknown
Orbital elements
Apogee altitude
475.687 km
Perigee altitude
462.731 km
Semi-major axis
6,847.346 km
Eccentricity
0.00095
Inclination
97.5648°
RAAN
313.4259°
Arg. of periapsis
208.8318°
True anomaly
151.29221°
Mean anomaly
151.2401°
Eccentric anomaly
151.26616°
Mean motion
3.83054 °/min
Orbital period
93.98 mins
BSTAR
0.0001725
Loading maneuver chart data...
Computing Atmospheric mass density...
Loading historical data...
Loading historical data...
Loading historical data...
Loading historical data...
Loading historical data...
Loading historical data...
Loading historical data...

Documentation

Showing up to 5 results
|